DW2633 Weather Reports


time (UTC)temp
F
wind
direction
speed
knots
gust
knots
rain 1hr
in
rain 24hr
in
rain mn
in
humidity
%
barometer
mb
20260904040525 62 131 3.5 0.0 0.00 0.00 0.00 93 1010.4
20260904040025 62 130 3.5 0.0 0.00 0.00 0.00 93 1010.5
20260904035523 63 134 2.6 0.0 0.00 0.00 0.00 93 1010.5
20260904035024 63 145 2.6 0.0 0.00 0.00 0.00 93 1010.4
20260904034523 63 145 0.9 0.0 0.00 0.00 0.00 93 1010.5
20260904034024 63 145 0.9 0.0 0.00 0.00 0.00 92 1010.6
20260904033523 63 140 2.6 0.0 0.00 0.00 0.00 92 1010.6
20260904033023 63 133 3.5 0.0 0.00 0.00 0.00 92 1010.6
20260904032522 63 132 3.5 0.0 0.00 0.00 0.00 93 1010.6
20260904032022 63 134 2.6 0.0 0.00 0.00 0.00 93 1010.6
20260904031522 63 132 1.7 0.0 0.00 0.00 0.00 92 1010.5
20260904031023 64 148 1.7 0.0 0.00 0.00 0.00 92 1010.4
20260904030522 64 148 3.5 0.0 0.00 0.00 0.00 92 1010.4
20260904030023 64 126 3.5 0.0 0.00 0.00 0.00 92 1010.5
20260904025522 64 134 3.5 0.0 0.00 0.00 0.00 92 1010.6
20260904025024 64 136 3.5 0.0 0.00 0.00 0.00 92 1010.6
20260904024522 64 126 3.5 0.0 0.00 0.00 0.00 92 1010.7
20260904024023 64 132 2.6 0.0 0.00 0.00 0.00 92 1010.8
20260904023521 64 142 2.6 0.0 0.00 0.00 0.00 92 1010.9
20260904023021 65 132 3.5 0.0 0.00 0.00 0.00 92 1010.8
20260904022521 65 132 2.6 0.0 0.00 0.00 0.00 92 1010.9
20260904022021 65 134 1.7 0.0 0.00 0.00 0.00 92 1010.9
20260904021525 65 134 2.6 0.0 0.00 0.00 0.00 91 1011.0
20260904021023 65 132 2.6 0.0 0.00 0.00 0.00 92 1011.0
20260904020521 65 132 3.5 0.0 0.00 0.00 0.00 91 1010.9
20260904020021 65 131 3.5 0.0 0.00 0.00 0.00 92 1011.0
20260904015520 65 128 3.5 0.0 0.00 0.00 0.00 91 1011.0
20260904015020 65 135 3.5 0.0 0.00 0.00 0.00 91 1010.9
20260904014520 66 129 2.6 0.0 0.00 0.00 0.00 91 1010.9
20260904014020 66 138 2.6 0.0 0.00 0.00 0.00 91 1011.0
20260904013519 66 137 3.5 0.0 0.00 0.00 0.00 91 1011.0
20260904013020 66 121 4.3 0.0 0.00 0.00 0.00 91 1011.1
20260904012519 66 132 3.5 0.0 0.00 0.00 0.00 91 1011.1
20260904012019 66 136 1.7 0.0 0.00 0.00 0.00 91 1011.2
20260904011520 66 136 0.9 0.0 0.00 0.00 0.00 90 1011.1
20260904011019 67 136 2.6 0.0 0.00 0.00 0.00 90 1011.1
20260904010519 67 136 2.6 0.0 0.00 0.00 0.00 90 1011.1
20260904010020 67 137 2.6 0.0 0.00 0.00 0.00 90 1011.0
20260904005518 67 139 1.7 0.0 0.00 0.00 0.00 89 1011.1
20260904005018 67 141 0.9 0.0 0.00 0.00 0.00 89 1011.0
20260904004518 67 141 0.9 0.0 0.00 0.00 0.00 89 1011.0
20260904004018 68 141 1.7 0.0 0.00 0.00 0.00 89 1010.8
20260904003520 68 141 1.7 0.0 0.00 0.00 0.00 89 1010.8
20260904003017 68 140 1.7 0.0 0.00 0.00 0.00 89 1010.8
20260904002520 68 140 2.6 0.0 0.00 0.00 0.00 88 1010.8
20260904002017 68 140 2.6 0.0 0.00 0.00 0.00 88 1011.0
20260904001516 69 141 2.6 0.0 0.00 0.00 0.00 88 1010.7
20260904001016 69 142 1.7 0.0 0.00 0.00 0.00 87 1010.7
20260904000516 69 142 2.6 0.0 0.00 0.00 0.00 88 1010.5
20260904000018 69 142 1.7 0.0 0.00 0.00 0.00 87 1010.5
20260903235516 69 150 0.0 0.0 0.00 0.00 0.00 86 1010.5
20260903235017 70 241 0.0 0.0 0.00 0.00 0.00 85 1010.4
20260903234524 70 276 0.9 0.0 0.00 0.00 0.00 83 1010.4
20260903234017 71 276 2.6 0.0 0.00 0.00 0.00 82 1010.1
20260903233516 71 276 4.3 0.0 0.00 0.00 0.00 83 1010.0
20260903233015 72 273 4.3 0.0 0.00 0.00 0.00 83 1010.0
20260903232515 72 278 4.3 0.0 0.00 0.00 0.00 84 1010.0
20260903232017 72 275 4.3 0.0 0.00 0.00 0.00 84 1010.0
20260903231515 73 273 5.2 0.0 0.00 0.00 0.00 83 1010.0
20260903231014 73 273 6.1 0.0 0.00 0.00 0.00 83 1010.0
20260903230514 73 273 6.1 0.0 0.00 0.00 0.00 83 1010.0
20260903230015 74 269 7.0 0.0 0.00 0.00 0.00 82 1010.1
20260903225519 74 267 7.0 0.0 0.00 0.00 0.00 82 1010.1
20260903225014 74 266 6.1 0.0 0.00 0.00 0.00 82 1010.1
20260903224523 75 263 6.1 0.0 0.00 0.00 0.00 80 1010.0
20260903224015 75 271 7.8 0.0 0.00 0.00 0.00 80 1010.1
20260903223515 75 269 9.6 0.0 0.00 0.00 0.00 79 1010.2
20260903223017 76 275 9.6 0.0 0.00 0.00 0.00 77 1010.1
20260903222517 76 269 9.6 0.0 0.00 0.00 0.00 77 1010.1
20260903222013 76 280 10.4 0.0 0.00 0.00 0.00 74 1010.1
20260903221514 77 274 11.3 0.0 0.00 0.00 0.00 74 1009.9
20260903221012 77 275 10.4 0.0 0.00 0.00 0.00 73 1009.9
20260903220513 78 273 7.8 0.0 0.00 0.00 0.00 74 1010.0
20260903220013 78 267 6.1 0.0 0.00 0.00 0.00 75 1010.0
20260903215515 78 267 7.0 0.0 0.00 0.00 0.00 75 1010.0
20260903215013 78 264 7.8 0.0 0.00 0.00 0.00 74 1010.1
20260903214514 79 269 8.7 0.0 0.00 0.00 0.00 74 1010.0
20260903214012 79 273 9.6 0.0 0.00 0.00 0.00 71 1010.1
20260903213513 79 279 11.3 0.0 0.00 0.00 0.00 69 1009.8
20260903213010 79 280 10.4 0.0 0.00 0.00 0.00 73 1010.0
20260903212511 79 261 9.6 0.0 0.00 0.00 0.00 70 1010.0
20260903212010 79 262 12.2 0.0 0.00 0.00 0.00 71 1010.1
20260903211509 80 267 13.9 0.0 0.00 0.00 0.00 68 1009.9
20260903211009 80 266 13.0 0.0 0.00 0.00 0.00 70 1010.1
20260903210509 80 271 12.2 0.0 0.00 0.00 0.00 71 1010.0
20260903210009 80 260 11.3 0.0 0.00 0.00 0.00 72 1009.9
20260903205512 80 266 11.3 0.0 0.00 0.00 0.00 72 1009.9
20260903205008 80 264 11.3 0.0 0.00 0.00 0.00 72 1010.2
20260903204508 80 275 10.4 0.0 0.00 0.00 0.00 73 1010.2
20260903204009 80 269 12.2 0.0 0.00 0.00 0.00 69 1010.4
20260903203506 80 273 13.0 0.0 0.00 0.00 0.00 71 1010.5
20260903203013 80 268 13.0 0.0 0.00 0.00 0.00 71 1010.2
20260903202508 80 255 11.3 0.0 0.00 0.00 0.00 72 1010.0
20260903202005 80 264 11.3 0.0 0.00 0.00 0.00 72 1010.0
20260903201505 80 259 9.6 0.0 0.00 0.00 0.00 77 1010.0
20260903201004 80 232 8.7 0.0 0.00 0.00 0.00 75 1010.1
20260903200504 80 250 12.2 0.0 0.00 0.00 0.00 73 1010.0
20260903200005 80 265 13.9 0.0 0.00 0.00 0.00 75 1010.0
20260903195503 80 265 13.0 0.0 0.00 0.00 0.00 75 1010.0
20260903195003 79 265 12.2 0.0 0.00 0.00 0.00 74 1010.0
20260903194505 79 257 13.0 0.0 0.00 0.00 0.00 75 1010.1
20260903194101 79 269 13.0 0.0 0.00 0.00 0.00 77 1010.3
20260903193559 79 234 12.2 0.0 0.00 0.00 0.00 77 1010.5
20260903193059 79 251 11.3 0.0 0.00 0.00 0.00 78 1010.4
20260903192558 79 239 11.3 0.0 0.00 0.00 0.00 78 1010.4
20260903192057 78 265 10.4 0.0 0.00 0.00 0.00 78 1010.4
20260903191600 78 271 9.6 0.0 0.00 0.00 0.00 80 1010.4
20260903191056 78 270 9.6 0.0 0.00 0.00 0.00 79 1010.3
20260903190555 78 236 12.2 0.0 0.00 0.00 0.00 81 1010.3
20260903190054 77 258 13.0 0.0 0.00 0.00 0.00 80 1010.4
20260903185553 77 236 12.2 0.0 0.00 0.00 0.00 83 1010.4
20260903185052 77 265 9.6 0.0 0.00 0.00 0.00 84 1010.5
20260903184557 77 268 7.0 0.0 0.00 0.00 0.00 84 1010.5
20260903184050 76 281 5.2 0.0 0.00 0.00 0.00 84 1010.6
20260903183548 76 248 4.3 0.0 0.00 0.00 0.00 87 1010.6
20260903183051 75 236 3.5 0.0 0.00 0.00 0.00 87 1010.7
20260903182548 75 240 2.6 0.0 0.00 0.00 0.00 87 1010.6
20260903182044 74 231 2.6 0.0 0.00 0.00 0.00 84 1010.6
20260903181544 74 221 3.5 0.0 0.00 0.00 0.00 87 1010.6
20260903181043 74 221 3.5 0.0 0.00 0.00 0.00 86 1010.7
20260903180543 74 233 4.3 0.0 0.00 0.00 0.00 87 1010.7
20260903180049 74 249 5.2 0.0 0.00 0.00 0.00 87 1010.7
20260903175541 74 229 4.3 0.0 0.00 0.00 0.00 87 1010.8
20260903175040 73 220 3.5 0.0 0.00 0.00 0.00 88 1010.8
20260903174540 73 237 4.3 0.0 0.00 0.00 0.00 90 1010.8
20260903174039 73 253 5.2 0.0 0.00 0.00 0.00 90 1010.8
20260903173536 73 225 4.3 0.0 0.00 0.00 0.00 90 1010.8
20260903173035 72 227 3.5 0.0 0.00 0.00 0.00 91 1011.1
20260903172535 72 249 3.5 0.0 0.00 0.00 0.00 90 1011.1
20260903172035 72 247 3.5 0.0 0.00 0.00 0.00 90 1011.3
20260903171535 72 254 4.3 0.0 0.00 0.00 0.00 91 1011.3
20260903171034 72 243 6.1 0.0 0.00 0.00 0.00 90 1011.3
20260903170537 72 230 7.8 0.0 0.00 0.00 0.00 90 1011.3
20260903170037 72 262 7.8 0.0 0.00 0.00 0.00 91 1011.2
20260903165533 72 260 9.6 0.0 0.00 0.00 0.00 91 1011.2
20260903165034 72 255 11.3 0.0 0.00 0.00 0.00 91 1011.4
20260903164533 72 243 10.4 0.0 0.00 0.00 0.00 90 1011.4
20260903164033 72 263 6.1 0.0 0.00 0.00 0.00 92 1011.4
20260903163531 72 246 3.5 0.0 0.00 0.00 0.00 92 1011.2
20260903163033 72 244 3.5 0.0 0.00 0.00 0.00 91 1011.4
20260903162533 72 229 2.6 0.0 0.00 0.00 0.00 91 1011.4
20260903162031 72 188 1.7 0.0 0.00 0.00 0.00 92 1011.4
20260903161529 72 226 0.9 0.0 0.00 0.00 0.00 92 1011.5
20260903161029 71 225 0.9 0.0 0.00 0.00 0.00 91 1011.5
20260903160529 71 230 1.7 0.0 0.00 0.00 0.00 92 1011.7
20260903160028 71 242 1.7 0.0 0.00 0.00 0.00 91 1011.8
20260903155526 71 223 1.7 0.0 0.00 0.00 0.00 92 1011.9
20260903155026 71 224 2.6 0.0 0.00 0.00 0.00 92 1011.9
20260903154526 71 224 2.6 0.0 0.00 0.00 0.00 92 1011.9
20260903154028 71 250 2.6 0.0 0.00 0.00 0.00 92 1011.9
20260903153524 71 215 2.6 0.0 0.00 0.00 0.00 93 1011.8
20260903153023 71 230 3.5 0.0 0.00 0.00 0.00 92 1011.9
20260903152523 70 226 3.5 0.0 0.00 0.00 0.00 93 1012.0
20260903152023 70 234 3.5 0.0 0.00 0.00 0.00 93 1011.9
20260903151521 70 233 3.5 0.0 0.00 0.00 0.00 92 1011.8
20260903151021 70 235 4.3 0.0 0.00 0.00 0.00 93 1011.9
20260903150521 70 227 5.2 0.0 0.00 0.00 0.00 93 1011.9
20260903150028 70 252 5.2 0.0 0.00 0.00 0.00 93 1011.9
20260903145520 70 222 4.3 0.0 0.00 0.00 0.00 94 1012.0
20260903145019 70 227 3.5 0.0 0.00 0.00 0.00 93 1011.9
20260903144519 70 242 3.5 0.0 0.00 0.00 0.00 94 1011.9
20260903144023 69 223 2.6 0.0 0.00 0.00 0.00 94 1011.8
20260903143518 69 233 1.7 0.0 0.00 0.00 0.00 94 1011.8
20260903143037 69 224 1.7 0.0 0.00 0.00 0.00 94 1011.7
20260903142516 69 214 1.7 0.0 0.00 0.00 0.00 95 1011.7
20260903142016 69 215 2.6 0.0 0.00 0.00 0.00 95 1011.7
20260903141514 68 217 2.6 0.0 0.00 0.00 0.00 95 1011.7
20260903141014 68 225 2.6 0.0 0.00 0.00 0.00 95 1011.8
20260903140517 68 226 2.6 0.0 0.00 0.00 0.00 95 1011.8
20260903140019 68 224 1.7 0.0 0.00 0.00 0.00 96 1011.9
20260903135512 68 223 1.7 0.0 0.00 0.00 0.00 96 1011.8
20260903135012 68 212 1.7 0.0 0.00 0.00 0.00 96 1011.9
20260903134510 67 229 0.9 0.0 0.00 0.00 0.00 96 1012.0
20260903134011 67 165 0.9 0.0 0.00 0.00 0.00 96 1011.9
20260903133508 67 202 0.9 0.0 0.00 0.00 0.00 96 1011.8
20260903133012 67 229 1.7 0.0 0.00 0.00 0.00 96 1011.9
20260903132508 67 232 1.7 0.0 0.00 0.00 0.00 97 1011.8
20260903132006 67 241 1.7 0.0 0.00 0.00 0.00 97 1011.9
20260903131506 66 224 0.9 0.0 0.00 0.00 0.00 97 1011.9
20260903131006 66 193 0.9 0.0 0.00 0.00 0.00 97 1012.0
20260903130504 66 188 0.9 0.0 0.00 0.00 0.00 97 1012.0
20260903130003 66 202 0.0 0.0 0.00 0.00 0.00 97 1012.1
20260903125503 66 223 0.9 0.0 0.00 0.00 0.00 97 1012.0
20260903125004 65 223 1.7 0.0 0.00 0.00 0.00 97 1012.2
20260903124504 65 223 1.7 0.0 0.00 0.00 0.00 97 1012.2
20260903124002 65 219 1.7 0.0 0.00 0.00 0.00 97 1012.1
20260903123504 65 225 0.9 0.0 0.00 0.00 0.00 97 1012.1
20260903123100 65 183 0.0 0.0 0.00 0.00 0.00 97 1012.1
20260903122602 65 178 0.0 0.0 0.00 0.00 0.00 97 1012.1
20260903122059 64 161 0.9 0.0 0.00 0.00 0.00 97 1012.2
20260903121559 64 163 0.0 0.0 0.00 0.00 0.00 97 1012.2
20260903121057 64 219 0.0 0.0 0.00 0.00 0.00 97 1012.3
20260903120557 64 219 0.9 0.0 0.00 0.00 0.00 97 1012.3
20260903120057 64 219 0.0 0.0 0.00 0.00 0.00 97 1012.3
20260903115556 64 219 0.0 0.0 0.00 0.00 0.00 97 1012.4
20260903115056 64 219 0.0 0.0 0.00 0.00 0.00 97 1012.3
20260903114556 64 219 0.0 0.0 0.00 0.00 0.00 97 1012.3
20260903114055 63 219 0.9 0.0 0.00 0.00 0.00 97 1012.2
20260903113554 63 219 0.9 0.0 0.00 0.00 0.00 97 1012.2
20260903113054 63 219 0.9 0.0 0.00 0.00 0.00 97 1012.4
20260903112556 63 218 0.9 0.0 0.00 0.00 0.00 97 1012.4
20260903112054 63 217 0.9 0.0 0.00 0.00 0.00 96 1012.4
20260903111603 63 217 1.7 0.0 0.00 0.00 0.00 96 1012.4
20260903111053 63 221 1.7 0.0 0.00 0.00 0.00 96 1012.5
20260903110556 63 220 1.7 0.0 0.00 0.00 0.00 96 1012.5
20260903110053 63 219 1.7 0.0 0.00 0.00 0.00 96 1012.5
20260903105553 63 218 0.9 0.0 0.00 0.00 0.00 96 1012.4
20260903105053 63 202 0.0 0.0 0.00 0.00 0.00 96 1012.5
20260903104554 63 148 0.0 0.0 0.00 0.00 0.00 96 1012.4
20260903104053 63 148 0.9 0.0 0.00 0.00 0.00 96 1012.4
20260903103552 63 148 0.9 0.0 0.00 0.00 0.00 96 1012.2
20260903103052 63 148 0.9 0.0 0.00 0.00 0.00 96 1012.2
20260903102553 63 148 0.0 0.0 0.00 0.00 0.00 96 1012.2
20260903102051 63 148 0.0 0.0 0.00 0.00 0.00 96 1012.1
20260903101557 63 148 0.0 0.0 0.00 0.00 0.00 96 1012.2
20260903101051 63 148 0.0 0.0 0.00 0.00 0.00 96 1012.2
20260903100551 63 148 0.9 0.0 0.00 0.00 0.00 96 1012.2
20260903100054 63 148 2.6 0.0 0.00 0.00 0.00 96 1012.3
20260903095550 63 149 3.5 0.0 0.00 0.00 0.00 96 1012.3
20260903095050 63 139 3.5 0.0 0.00 0.00 0.00 96 1012.3
20260903094556 63 134 3.5 0.0 0.00 0.00 0.00 96 1012.2
20260903094051 63 141 4.3 0.0 0.00 0.00 0.00 96 1012.2
20260903093621 63 136 4.3 0.0 0.00 0.00 0.00 96 1012.1
20260903093057 63 134 3.5 0.0 0.00 0.00 0.00 96 1012.2
20260903092551 63 134 3.5 0.0 0.00 0.00 0.00 96 1012.3
20260903092049 63 134 3.5 0.0 0.00 0.00 0.00 96 1012.2
20260903091549 63 137 3.5 0.0 0.00 0.00 0.00 96 1012.1
20260903091049 63 138 3.5 0.0 0.00 0.00 0.00 96 1012.0
20260903090549 63 136 2.6 0.0 0.00 0.00 0.00 96 1011.9
20260903090049 63 144 1.7 0.0 0.00 0.00 0.00 96 1012.1
20260903085548 63 163 3.5 0.0 0.00 0.00 0.00 96 1012.2
20260903085049 63 138 3.5 0.0 0.00 0.00 0.00 96 1012.0
20260903084548 63 137 3.5 0.0 0.00 0.00 0.00 96 1012.1
20260903084048 63 134 3.5 0.0 0.00 0.00 0.00 96 1012.1
20260903083547 63 152 3.5 0.0 0.00 0.00 0.00 96 1012.1
20260903083052 63 135 4.3 0.0 0.00 0.00 0.00 96 1012.2
20260903082548 63 137 3.5 0.0 0.00 0.00 0.00 96 1012.4
20260903082045 63 140 3.5 0.0 0.00 0.00 0.00 96 1012.4
20260903081548 63 131 3.5 0.0 0.00 0.00 0.00 96 1012.2
20260903081045 63 151 3.5 0.0 0.00 0.00 0.00 96 1012.3
20260903080548 63 137 4.3 0.0 0.00 0.00 0.00 96 1012.3
20260903080048 63 133 5.2 0.0 0.00 0.00 0.00 96 1012.3
20260903075544 63 135 6.1 0.0 0.00 0.00 0.00 96 1012.3
20260903075044 63 135 5.2 0.0 0.00 0.00 0.00 96 1012.2
20260903074545 63 132 5.2 0.0 0.00 0.00 0.00 96 1012.3
20260903074044 63 136 6.1 0.0 0.00 0.00 0.00 96 1012.3
20260903073543 63 136 6.1 0.0 0.00 0.00 0.00 96 1012.4
20260903073043 63 133 5.2 0.0 0.00 0.00 0.00 96 1012.4
20260903072542 63 128 5.2 0.0 0.00 0.00 0.00 96 1012.4
20260903072042 63 148 5.2 0.0 0.00 0.00 0.00 96 1012.4
20260903071543 63 135 6.1 0.0 0.00 0.00 0.00 96 1012.4
20260903071042 63 140 7.0 0.0 0.00 0.00 0.00 96 1012.4
20260903070544 63 130 6.1 0.0 0.00 0.00 0.00 96 1012.5
20260903070041 63 155 6.1 0.0 0.00 0.00 0.00 96 1012.4
20260903065541 63 111 7.0 0.0 0.00 0.00 0.00 96 1012.4
20260903065040 63 126 7.0 0.0 0.00 0.00 0.00 96 1012.4
20260903064542 63 134 7.0 0.0 0.00 0.00 0.00 96 1012.4
20260903064040 63 129 6.1 0.0 0.00 0.00 0.00 96 1012.4
20260903063539 63 140 5.2 0.0 0.00 0.00 0.00 96 1012.4
20260903063039 63 129 5.2 0.0 0.00 0.00 0.00 96 1012.3
20260903062539 63 134 6.1 0.0 0.00 0.00 0.00 96 1012.3
20260903062039 63 131 7.8 0.0 0.00 0.00 0.00 96 1012.3
20260903061550 63 135 7.0 0.0 0.00 0.00 0.00 96 1012.2
20260903061037 63 130 5.2 0.0 0.00 0.00 0.00 96 1012.4
20260903060536 63 130 4.3 0.0 0.00 0.00 0.00 96 1012.5
20260903060040 63 136 5.2 0.0 0.00 0.00 0.00 96 1012.5
20260903055535 63 123 4.3 0.0 0.00 0.00 0.00 95 1012.6
20260903055035 63 133 5.2 0.0 0.00 0.00 0.00 95 1012.6
20260903054536 63 148 4.3 0.0 0.00 0.00 0.00 95 1012.5
20260903054035 63 156 2.6 0.0 0.00 0.00 0.00 95 1012.6
20260903053535 63 157 4.3 0.0 0.00 0.00 0.00 95 1012.7
20260903053035 63 138 5.2 0.0 0.00 0.00 0.00 95 1012.6
20260903052536 63 138 4.3 0.0 0.00 0.00 0.00 95 1012.8
20260903052034 63 124 3.5 0.0 0.00 0.00 0.00 95 1012.8
20260903051533 63 162 2.6 0.0 0.00 0.00 0.00 95 1013.0
20260903051034 63 130 3.5 0.0 0.00 0.00 0.00 95 1013.1
20260903050533 63 130 3.5 0.0 0.00 0.00 0.00 95 1013.1
20260903050034 63 128 2.6 0.0 0.00 0.00 0.00 95 1013.1
20260903045533 63 148 1.7 0.0 0.00 0.00 0.00 95 1013.2
20260903045036 63 148 1.7 0.0 0.00 0.00 0.00 95 1013.1
20260903044536 63 157 3.5 0.0 0.00 0.00 0.00 95 1013.0
20260903044035 63 150 4.3 0.0 0.00 0.00 0.00 95 1013.2
20260903043532 63 128 1.7 0.0 0.00 0.00 0.00 95 1013.2
20260903043040 63 215 2.6 0.0 0.00 0.00 0.00 95 1013.1
20260903042532 63 221 3.5 0.0 0.00 0.00 0.00 95 1013.2
20260903042032 63 128 2.6 0.0 0.00 0.00 0.00 94 1013.1
20260903041531 63 147 3.5 0.0 0.00 0.00 0.00 94 1012.9
20260903041030 63 190 3.5 0.0 0.00 0.00 0.00 94 1012.8